contact:dominique.lefevre@mio.osupytheas.fr, maurice.libes@osupytheas.fr, didier.mallarino@osupytheas.fr
Project:EMSO http://www.emso-fr.org/EMSO-France
Depth: 2436.0 m
Title:EMSO Ligure Ouest : Data MII capteur CSTAR
DateTime,Latitude,Longitude,Instrument_Serial,Reference_Counts,Signal_Counts,Corrected_Signal_raw_counts,Calculated_Beam_c_inverse_meters,Internal_thermistor_counts
DateTime,Latitude,Longitude,Instrument_Serial,Reference_Counts,Signal_Counts,Corrected_Signal_raw_counts,Calculated_Beam_c_inverse_meters,Internal_thermistor_counts
2019-06-14T08:11:01,42.805,6.029,CST-1368DR,9060,12678,15533,0.021,551
2019-06-14T08:14:03,42.805,6.029,CST-1368DR,9060,12679,15534,0.021,551
2019-06-14T08:17:04,42.805,6.029,CST-1368DR,9060,12678,15533,0.021,551
2019-06-14T08:20:06,42.805,6.029,CST-1368DR,9060,12676,15531,0.022,551
2019-06-14T08:23:08,42.805,6.029,CST-1368DR,9060,12677,15531,0.022,551
2019-06-14T08:26:10,42.805,6.029,CST-1368DR,9060,12678,15532,0.022,551
2019-06-14T08:29:11,42.805,6.029,CST-1368DR,9060,12678,15533,0.021,551
2019-06-14T08:32:13,42.805,6.029,CST-1368DR,9060,12676,15531,0.022,551
2019-06-14T08:35:15,42.805,6.029,CST-1368DR,9060,12678,15533,0.021,551
2019-06-14T08:38:17,42.805,6.029,CST-1368DR,9060,12678,15533,0.021,551
2019-06-14T08:41:19,42.805,6.029,CST-1368DR,9060,12678,15533,0.021,551
2019-06-14T08:44:20,42.805,6.029,CST-1368DR,9060,12678,15532,0.022,551
2019-06-14T08:47:22,42.805,6.029,CST-1368DR,9060,12677,15531,0.022,551
2019-06-14T08:50:24,42.805,6.029,CST-1368DR,9060,12677,15532,0.022,551
2019-06-14T08:53:26,42.805,6.029,CST-1368DR,9060,12679,15534,0.021,551
2019-06-14T08:56:28,42.805,6.029,CST-1368DR,9060,12677,15532,0.022,551
2019-06-14T08:59:30,42.805,6.029,CST-1368DR,9060,12676,15531,0.022,551
2019-06-14T09:02:31,42.805,6.029,CST-1368DR,9060,12677,15531,0.022,551
2019-06-14T09:05:33,42.805,6.029,CST-1368DR,9060,12676,15531,0.022,551
2019-06-14T09:08:35,42.805,6.029,CST-1368DR,9060,12677,15531,0.022,551
2019-06-14T09:11:37,42.805,6.029,CST-1368DR,9060,12676,15531,0.022,551
2019-06-14T09:14:39,42.805,6.029,CST-1368DR,9060,12678,15533,0.021,551
2019-06-14T09:17:40,42.805,6.029,CST-1368DR,9060,12678,15533,0.021,551
2019-06-14T09:20:42,42.805,6.029,CST-1368DR,9060,12678,15533,0.021,550
2019-06-14T09:23:44,42.805,6.029,CST-1368DR,9060,12678,15533,0.021,550
2019-06-14T09:26:46,42.805,6.029,CST-1368DR,9060,12678,15533,0.021,550
2019-06-14T09:29:47,42.805,6.029,CST-1368DR,9060,12676,15531,0.022,551
2019-06-14T09:32:49,42.805,6.029,CST-1368DR,9060,12678,15532,0.022,551
2019-06-14T09:35:51,42.805,6.029,CST-1368DR,9060,12678,15533,0.021,551
2019-06-14T09:38:53,42.805,6.029,CST-1368DR,9059,12677,15533,0.021,551
2019-06-14T09:41:55,42.805,6.029,CST-1368DR,9059,12677,15534,0.021,551
2019-06-14T09:44:56,42.805,6.029,CST-1368DR,9060,12678,15533,0.021,551
2019-06-14T09:47:58,42.805,6.029,CST-1368DR,9059,12678,15535,0.021,551
2019-06-14T09:51:00,42.805,6.029,CST-1368DR,9059,12678,15534,0.021,551
2019-06-14T09:54:02,42.805,6.029,CST-1368DR,9059,12678,15534,0.021,551
2019-06-14T09:57:03,42.805,6.029,CST-1368DR,9059,12678,15534,0.021,550
2019-06-14T10:00:05,42.805,6.029,CST-1368DR,9059,12678,15534,0.021,551
2019-06-14T10:03:07,42.805,6.029,CST-1368DR,9059,12677,15534,0.021,551
2019-06-14T10:06:09,42.805,6.029,CST-1368DR,9059,12677,15533,0.021,551
2019-06-14T10:09:11,42.805,6.029,CST-1368DR,9059,12677,15534,0.021,551
2019-06-14T10:12:12,42.805,6.029,CST-1368DR,9059,12677,15534,0.021,551
2019-06-14T10:15:14,42.805,6.029,CST-1368DR,9059,12676,15532,0.022,551
2019-06-14T10:18:16,42.805,6.029,CST-1368DR,9059,12677,15533,0.021,551
2019-06-14T10:21:18,42.805,6.029,CST-1368DR,9059,12676,15532,0.022,551
2019-06-14T10:24:20,42.805,6.029,CST-1368DR,9059,12678,15534,0.021,550
2019-06-14T10:27:22,42.805,6.029,CST-1368DR,9059,12675,15531,0.022,551
2019-06-14T10:30:24,42.805,6.029,CST-1368DR,9059,12677,15533,0.021,550
2019-06-14T10:33:26,42.805,6.029,CST-1368DR,9059,12677,15533,0.021,551
2019-06-14T10:36:28,42.805,6.029,CST-1368DR,9059,12677,15533,0.021,550
2019-06-14T10:39:30,42.805,6.029,CST-1368DR,9059,12676,15532,0.022,551
2019-06-14T10:42:31,42.805,6.029,CST-1368DR,9059,12678,15534,0.021,551
2019-06-14T10:45:33,42.805,6.029,CST-1368DR,9059,12677,15534,0.021,551
2019-06-14T10:48:35,42.805,6.029,CST-1368DR,9059,12675,15531,0.022,551
2019-06-14T10:51:37,42.805,6.029,CST-1368DR,9059,12676,15532,0.022,551
2019-06-14T10:54:39,42.805,6.029,CST-1368DR,9059,12676,15532,0.022,551
2019-06-14T10:57:41,42.805,6.029,CST-1368DR,9059,12678,15534,0.021,551
2019-06-14T11:00:42,42.805,6.029,CST-1368DR,9059,12677,15533,0.021,550
2019-06-14T11:03:44,42.805,6.029,CST-1368DR,9059,12677,15533,0.021,551
2019-06-14T11:06:46,42.805,6.029,CST-1368DR,9058,12677,15535,0.021,551
2019-06-14T11:09:48,42.805,6.029,CST-1368DR,9058,12676,15534,0.021,551
2019-06-14T11:12:50,42.805,6.029,CST-1368DR,9059,12677,15533,0.021,551
2019-06-14T11:15:51,42.805,6.029,CST-1368DR,9058,12669,15525,0.023,551
2019-06-14T11:18:53,42.805,6.029,CST-1368DR,9059,12677,15533,0.021,551
2019-06-14T11:21:55,42.805,6.029,CST-1368DR,9058,12674,15532,0.022,551
2019-06-14T11:24:57,42.805,6.029,CST-1368DR,9058,12675,15533,0.021,551
2019-06-14T11:27:59,42.805,6.029,CST-1368DR,9058,12676,15534,0.021,551
2019-06-14T11:31:01,42.805,6.029,CST-1368DR,9058,12675,15532,0.022,551
2019-06-14T11:34:02,42.805,6.029,CST-1368DR,9058,12677,15534,0.021,551
2019-06-14T11:37:04,42.805,6.029,CST-1368DR,9058,12677,15535,0.021,551
2019-06-14T11:40:06,42.805,6.029,CST-1368DR,9058,12677,15535,0.021,551
2019-06-14T11:43:08,42.805,6.029,CST-1368DR,9058,12676,15534,0.021,551
2019-06-14T11:46:10,42.805,6.029,CST-1368DR,9058,12676,15533,0.021,551
2019-06-14T11:49:12,42.805,6.029,CST-1368DR,9058,12675,15532,0.022,551
2019-06-14T11:52:13,42.805,6.029,CST-1368DR,9058,12674,15531,0.022,551
2019-06-14T11:55:15,42.805,6.029,CST-1368DR,9058,12675,15532,0.022,551
2019-06-14T11:58:17,42.805,6.029,CST-1368DR,9058,12676,15534,0.021,551
2019-06-14T12:01:19,42.805,6.029,CST-1368DR,9058,12676,15534,0.021,551
2019-06-14T12:04:21,42.805,6.029,CST-1368DR,9058,12675,15532,0.022,551
2019-06-14T12:07:23,42.805,6.029,CST-1368DR,9058,12675,15532,0.022,551
2019-06-14T12:10:24,42.805,6.029,CST-1368DR,9058,12674,15531,0.022,551
2019-06-14T12:13:26,42.805,6.029,CST-1368DR,9058,12675,15532,0.022,551
2019-06-14T12:16:28,42.805,6.029,CST-1368DR,9058,12672,15529,0.022,551
2019-06-14T12:19:30,42.805,6.029,CST-1368DR,9058,12676,15534,0.021,551
2019-06-14T12:22:32,42.805,6.029,CST-1368DR,9058,12676,15533,0.021,551
2019-06-14T12:25:34,42.805,6.029,CST-1368DR,9058,12675,15533,0.021,551
2019-06-14T12:28:36,42.805,6.029,CST-1368DR,9058,12676,15533,0.021,551
2019-06-14T12:31:38,42.805,6.029,CST-1368DR,9058,12674,15532,0.022,551
2019-06-14T12:34:39,42.805,6.029,CST-1368DR,9058,12676,15533,0.021,551
2019-06-14T12:37:41,42.805,6.029,CST-1368DR,9058,12675,15533,0.021,551
2019-06-14T12:40:43,42.805,6.029,CST-1368DR,9058,12675,15532,0.022,551
2019-06-14T12:43:45,42.805,6.029,CST-1368DR,9057,12675,15534,0.021,551
2019-06-14T12:46:47,42.805,6.029,CST-1368DR,9057,12675,15534,0.021,551
2019-06-14T12:49:49,42.805,6.029,CST-1368DR,9057,12674,15533,0.021,551
2019-06-14T12:52:50,42.805,6.029,CST-1368DR,9057,12673,15532,0.022,551
2019-06-14T12:55:52,42.805,6.029,CST-1368DR,9057,12675,15534,0.021,551
2019-06-14T12:58:54,42.805,6.029,CST-1368DR,9057,12672,15531,0.022,551
2019-06-14T13:01:56,42.805,6.029,CST-1368DR,9057,12674,15532,0.022,551
2019-06-14T13:04:58,42.805,6.029,CST-1368DR,9057,12674,15533,0.021,551
2019-06-14T13:08:00,42.805,6.029,CST-1368DR,9057,12674,15532,0.022,551
2019-06-14T13:11:02,42.805,6.029,CST-1368DR,9057,12672,15530,0.022,551
2019-06-14T13:14:03,42.805,6.029,CST-1368DR,9057,12674,15533,0.021,551
2019-06-14T13:17:05,42.805,6.029,CST-1368DR,9057,12674,15532,0.022,551
2019-06-14T13:20:07,42.805,6.029,CST-1368DR,9057,12675,15533,0.021,551
2019-06-14T13:23:09,42.805,6.029,CST-1368DR,9057,12674,15533,0.021,551
2019-06-14T13:26:11,42.805,6.029,CST-1368DR,9057,12675,15534,0.021,551
2019-06-14T13:29:13,42.805,6.029,CST-1368DR,9057,12674,15532,0.022,551
2019-06-14T13:32:15,42.805,6.029,CST-1368DR,9057,12674,15532,0.022,551
2019-06-14T13:35:17,42.805,6.029,CST-1368DR,9057,12672,15531,0.022,551
2019-06-14T13:38:18,42.805,6.029,CST-1368DR,9057,12674,15533,0.021,551
2019-06-14T13:41:20,42.805,6.029,CST-1368DR,9057,12673,15532,0.022,551
2019-06-14T13:44:22,42.805,6.029,CST-1368DR,9057,12672,15531,0.022,551
2019-06-14T13:47:24,42.805,6.029,CST-1368DR,9057,12674,15532,0.022,551
2019-06-14T13:50:26,42.805,6.029,CST-1368DR,9057,12673,15532,0.022,551
2019-06-14T13:53:27,42.805,6.029,CST-1368DR,9057,12673,15532,0.022,551
2019-06-14T13:56:29,42.805,6.029,CST-1368DR,9057,12674,15533,0.021,551
2019-06-14T13:59:31,42.805,6.029,CST-1368DR,9057,12674,15532,0.022,551
2019-06-14T14:02:33,42.805,6.029,CST-1368DR,9057,12673,15532,0.022,551
2019-06-14T14:05:35,42.805,6.029,CST-1368DR,9056,12674,15534,0.021,550
2019-06-14T14:08:37,42.805,6.029,CST-1368DR,9056,12673,15533,0.021,551
2019-06-14T14:11:38,42.805,6.029,CST-1368DR,9057,12673,15532,0.022,550
2019-06-14T14:14:40,42.805,6.029,CST-1368DR,9057,12673,15532,0.022,551
2019-06-14T14:17:42,42.805,6.029,CST-1368DR,9057,12672,15530,0.022,551
2019-06-14T14:20:44,42.805,6.029,CST-1368DR,9056,12671,15530,0.022,551
2019-06-14T14:23:45,42.805,6.029,CST-1368DR,9056,12673,15533,0.021,551
2019-06-14T14:26:47,42.805,6.029,CST-1368DR,9056,12674,15534,0.021,551
2019-06-14T14:29:49,42.805,6.029,CST-1368DR,9056,12672,15532,0.022,551
2019-06-14T14:32:51,42.805,6.029,CST-1368DR,9056,12672,15532,0.022,551
2019-06-14T14:35:53,42.805,6.029,CST-1368DR,9056,12672,15532,0.022,551
2019-06-14T14:38:55,42.805,6.029,CST-1368DR,9056,12672,15532,0.022,551
2019-06-14T14:41:57,42.805,6.029,CST-1368DR,9056,12669,15529,0.022,550
2019-06-14T14:44:59,42.805,6.029,CST-1368DR,9056,12672,15531,0.022,551
2019-06-14T14:48:01,42.805,6.029,CST-1368DR,9056,12672,15531,0.022,551
2019-06-14T14:51:02,42.805,6.029,CST-1368DR,9056,12670,15529,0.022,551
2019-06-14T14:54:04,42.805,6.029,CST-1368DR,9056,12672,15532,0.022,551
2019-06-14T14:57:06,42.805,6.029,CST-1368DR,9056,12671,15531,0.022,551
2019-06-14T15:00:08,42.805,6.029,CST-1368DR,9056,12671,15530,0.022,551
2019-06-14T15:03:09,42.805,6.029,CST-1368DR,9056,12672,15532,0.022,551
2019-06-14T15:06:11,42.805,6.029,CST-1368DR,9056,12669,15528,0.023,551
2019-06-14T15:09:13,42.805,6.029,CST-1368DR,9056,12670,15530,0.022,551
2019-06-14T15:12:15,42.805,6.029,CST-1368DR,9056,12671,15530,0.022,551
2019-06-14T15:15:17,42.805,6.029,CST-1368DR,9056,12671,15531,0.022,551
2019-06-14T15:18:18,42.805,6.029,CST-1368DR,9056,12671,15530,0.022,551
2019-06-14T15:21:20,42.805,6.029,CST-1368DR,9056,12671,15531,0.022,551
2019-06-14T15:24:22,42.805,6.029,CST-1368DR,9056,12673,15533,0.021,551
2019-06-14T15:27:25,42.805,6.029,CST-1368DR,9056,12670,15530,0.022,551
2019-06-14T15:30:26,42.805,6.029,CST-1368DR,9056,12672,15532,0.022,551
2019-06-14T15:33:28,42.805,6.029,CST-1368DR,9056,12671,15530,0.022,551
2019-06-14T15:36:30,42.805,6.029,CST-1368DR,9056,12671,15530,0.022,550
2019-06-14T15:39:32,42.805,6.029,CST-1368DR,9056,12670,15529,0.022,551
2019-06-14T15:42:34,42.805,6.029,CST-1368DR,9056,12671,15531,0.022,551
2019-06-14T15:45:36,42.805,6.029,CST-1368DR,9056,12670,15530,0.022,551
2019-06-14T15:48:37,42.805,6.029,CST-1368DR,9056,12671,15530,0.022,551
2019-06-14T15:51:39,42.805,6.029,CST-1368DR,9056,12670,15530,0.022,551
2019-06-14T15:54:41,42.805,6.029,CST-1368DR,9056,12670,15530,0.022,551
2019-06-14T15:57:43,42.805,6.029,CST-1368DR,9055,12671,15532,0.022,551
2019-06-14T16:00:45,42.805,6.029,CST-1368DR,9055,12669,15530,0.022,551
2019-06-14T16:03:47,42.805,6.029,CST-1368DR,9055,12671,15532,0.022,551
2019-06-14T16:06:48,42.805,6.029,CST-1368DR,9055,12671,15532,0.022,551
2019-06-14T16:09:50,42.805,6.029,CST-1368DR,9055,12671,15532,0.022,551
2019-06-14T16:12:52,42.805,6.029,CST-1368DR,9055,12671,15532,0.022,551
2019-06-14T16:15:54,42.805,6.029,CST-1368DR,9055,12670,15531,0.022,551
2019-06-14T16:18:56,42.805,6.029,CST-1368DR,9055,12670,15531,0.022,551
2019-06-14T16:21:58,42.805,6.029,CST-1368DR,9055,12671,15532,0.022,551
2019-06-14T16:25:00,42.805,6.029,CST-1368DR,9055,12671,15532,0.022,551
2019-06-14T16:28:01,42.805,6.029,CST-1368DR,9055,12669,15530,0.022,551
2019-06-14T16:31:03,42.805,6.029,CST-1368DR,9055,12670,15531,0.022,551
2019-06-14T16:34:05,42.805,6.029,CST-1368DR,9055,12670,15530,0.022,551
2019-06-14T16:37:07,42.805,6.029,CST-1368DR,9055,12671,15532,0.022,551
2019-06-14T16:40:09,42.805,6.029,CST-1368DR,9055,12669,15530,0.022,551
2019-06-14T16:43:11,42.805,6.029,CST-1368DR,9055,12670,15531,0.022,551
2019-06-14T16:46:12,42.805,6.029,CST-1368DR,9055,12671,15532,0.022,551
2019-06-14T16:49:14,42.805,6.029,CST-1368DR,9055,12669,15530,0.022,551
2019-06-14T16:52:16,42.805,6.029,CST-1368DR,9055,12668,15528,0.023,551
2019-06-14T16:55:18,42.805,6.029,CST-1368DR,9055,12667,15527,0.023,551
2019-06-14T16:58:19,42.805,6.029,CST-1368DR,9055,12669,15530,0.022,551
2019-06-14T17:01:21,42.805,6.029,CST-1368DR,9055,12669,15530,0.022,551
2019-06-14T17:04:23,42.805,6.029,CST-1368DR,9055,12670,15531,0.022,551
2019-06-14T17:07:25,42.805,6.029,CST-1368DR,9055,12669,15530,0.022,550
2019-06-14T17:10:27,42.805,6.029,CST-1368DR,9055,12670,15531,0.022,551
2019-06-14T17:13:28,42.805,6.029,CST-1368DR,9055,12669,15530,0.022,551
2019-06-14T17:16:30,42.805,6.029,CST-1368DR,9055,12670,15530,0.022,551
2019-06-14T17:19:32,42.805,6.029,CST-1368DR,9054,12670,15533,0.021,551
2019-06-14T17:22:34,42.805,6.029,CST-1368DR,9054,12670,15532,0.022,551
2019-06-14T17:25:35,42.805,6.029,CST-1368DR,9054,12670,15532,0.022,551
2019-06-14T17:28:37,42.805,6.029,CST-1368DR,9055,12670,15531,0.022,551
2019-06-14T17:31:39,42.805,6.029,CST-1368DR,9054,12667,15529,0.022,551
2019-06-14T17:34:41,42.805,6.029,CST-1368DR,9054,12669,15531,0.022,551
2019-06-14T17:37:43,42.805,6.029,CST-1368DR,9054,12665,15527,0.023,551
2019-06-14T17:40:45,42.805,6.029,CST-1368DR,9054,12667,15528,0.023,550
2019-06-14T17:43:46,42.805,6.029,CST-1368DR,9054,12668,15530,0.022,551
2019-06-14T17:46:48,42.805,6.029,CST-1368DR,9054,12667,15529,0.022,551
2019-06-14T17:49:50,42.805,6.029,CST-1368DR,9054,12670,15532,0.022,550
2019-06-14T17:52:52,42.805,6.029,CST-1368DR,9054,12669,15532,0.022,551
2019-06-14T17:55:54,42.805,6.029,CST-1368DR,9054,12668,15531,0.022,551
2019-06-14T17:58:56,42.805,6.029,CST-1368DR,9054,12667,15528,0.023,551
2019-06-14T18:01:57,42.805,6.029,CST-1368DR,9054,12669,15531,0.022,551
2019-06-14T18:04:59,42.805,6.029,CST-1368DR,9054,12668,15530,0.022,551
2019-06-14T18:08:01,42.805,6.029,CST-1368DR,9054,12669,15531,0.022,551
2019-06-14T18:11:03,42.805,6.029,CST-1368DR,9054,12669,15532,0.022,551
2019-06-14T18:14:05,42.805,6.029,CST-1368DR,9054,12668,15530,0.022,551
2019-06-14T18:17:06,42.805,6.029,CST-1368DR,9054,12667,15529,0.022,551
2019-06-14T18:20:08,42.805,6.029,CST-1368DR,9054,12666,15528,0.023,551
2019-06-14T18:23:10,42.805,6.029,CST-1368DR,9054,12668,15530,0.022,551
2019-06-14T18:26:12,42.805,6.029,CST-1368DR,9054,12666,15528,0.023,551
2019-06-14T18:29:13,42.805,6.029,CST-1368DR,9054,12668,15531,0.022,550
2019-06-14T18:32:15,42.805,6.029,CST-1368DR,9054,12667,15529,0.022,551
2019-06-14T18:35:17,42.805,6.029,CST-1368DR,9054,12668,15531,0.022,551
2019-06-14T18:38:19,42.805,6.029,CST-1368DR,9054,12667,15529,0.022,551
2019-06-14T18:41:20,42.805,6.029,CST-1368DR,9054,12666,15528,0.023,551
2019-06-14T18:44:22,42.805,6.029,CST-1368DR,9054,12667,15528,0.023,551
2019-06-14T18:47:24,42.805,6.029,CST-1368DR,9054,12666,15528,0.023,551
2019-06-14T18:50:26,42.805,6.029,CST-1368DR,9054,12666,15528,0.023,551
2019-06-14T18:53:28,42.805,6.029,CST-1368DR,9054,12668,15530,0.022,551
2019-06-14T18:56:29,42.805,6.029,CST-1368DR,9054,12667,15529,0.022,551
2019-06-14T18:59:31,42.805,6.029,CST-1368DR,9053,12666,15530,0.022,551
2019-06-14T19:02:33,42.805,6.029,CST-1368DR,9054,12667,15528,0.023,551
2019-06-14T19:05:35,42.805,6.029,CST-1368DR,9053,12659,15520,0.025,551
2019-06-14T19:08:36,42.805,6.029,CST-1368DR,9054,12667,15528,0.023,551
2019-06-14T19:11:38,42.805,6.029,CST-1368DR,9053,12666,15529,0.022,551
2019-06-14T19:14:40,42.805,6.029,CST-1368DR,9054,12668,15530,0.022,551
2019-06-14T19:17:42,42.805,6.029,CST-1368DR,9053,12667,15531,0.022,550
2019-06-14T19:20:44,42.805,6.029,CST-1368DR,9053,12667,15531,0.022,551
2019-06-14T19:23:45,42.805,6.029,CST-1368DR,9053,12667,15531,0.022,551
2019-06-14T19:26:47,42.805,6.029,CST-1368DR,9053,12667,15530,0.022,551
2019-06-14T19:29:49,42.805,6.029,CST-1368DR,9053,12668,15531,0.022,551
2019-06-14T19:32:51,42.805,6.029,CST-1368DR,9053,12667,15530,0.022,551
2019-06-14T19:35:52,42.805,6.029,CST-1368DR,9053,12665,15527,0.023,551
2019-06-14T19:38:54,42.805,6.029,CST-1368DR,9053,12667,15531,0.022,551
2019-06-14T19:41:56,42.805,6.029,CST-1368DR,9053,12666,15529,0.022,551
2019-06-14T19:44:58,42.805,6.029,CST-1368DR,9053,12667,15531,0.022,551
2019-06-14T19:48:00,42.805,6.029,CST-1368DR,9053,12667,15531,0.022,551
2019-06-14T19:51:01,42.805,6.029,CST-1368DR,9053,12667,15530,0.022,551
2019-06-14T19:54:03,42.805,6.029,CST-1368DR,9053,12668,15531,0.022,551
2019-06-14T19:57:05,42.805,6.029,CST-1368DR,9053,12667,15530,0.022,551
2019-06-14T20:00:07,42.805,6.029,CST-1368DR,9053,12667,15530,0.022,551
2019-06-14T20:03:09,42.805,6.029,CST-1368DR,9053,12666,15529,0.022,551
2019-06-14T20:06:11,42.805,6.029,CST-1368DR,9053,12667,15530,0.022,551
2019-06-14T20:09:12,42.805,6.029,CST-1368DR,9053,12666,15530,0.022,551
2019-06-14T20:12:14,42.805,6.029,CST-1368DR,9053,12666,15529,0.022,551
2019-06-14T20:15:16,42.805,6.029,CST-1368DR,9053,12665,15528,0.023,551
2019-06-14T20:18:18,42.805,6.029,CST-1368DR,9053,12667,15531,0.022,551
2019-06-14T20:21:19,42.805,6.029,CST-1368DR,9053,12666,15529,0.022,551
2019-06-14T20:24:21,42.805,6.029,CST-1368DR,9053,12664,15527,0.023,551
2019-06-14T20:27:23,42.805,6.029,CST-1368DR,9053,12667,15530,0.022,551
2019-06-14T20:30:25,42.805,6.029,CST-1368DR,9053,12666,15530,0.022,551
2019-06-14T20:33:27,42.805,6.029,CST-1368DR,9053,12663,15525,0.023,551
2019-06-14T20:36:29,42.805,6.029,CST-1368DR,9053,12667,15530,0.022,551
2019-06-14T20:39:31,42.805,6.029,CST-1368DR,9053,12668,15531,0.022,551
2019-06-14T20:42:32,42.805,6.029,CST-1368DR,9053,12667,15530,0.022,551
2019-06-14T20:45:34,42.805,6.029,CST-1368DR,9052,12665,15530,0.022,551
2019-06-14T20:48:36,42.805,6.029,CST-1368DR,9053,12666,15529,0.022,551
2019-06-14T20:51:38,42.805,6.029,CST-1368DR,9052,12665,15529,0.022,551
2019-06-14T20:54:39,42.805,6.029,CST-1368DR,9052,12665,15530,0.022,551
2019-06-14T20:57:41,42.805,6.029,CST-1368DR,9052,12666,15531,0.022,551
2019-06-14T21:00:43,42.805,6.029,CST-1368DR,9052,12665,15530,0.022,551
2019-06-14T21:03:45,42.805,6.029,CST-1368DR,9052,12661,15525,0.023,551
2019-06-14T21:06:47,42.805,6.029,CST-1368DR,9052,12665,15530,0.022,551
2019-06-14T21:09:49,42.805,6.029,CST-1368DR,9052,12665,15530,0.022,551
2019-06-14T21:12:51,42.805,6.029,CST-1368DR,9052,12666,15530,0.022,551
2019-06-14T21:15:52,42.805,6.029,CST-1368DR,9052,12661,15525,0.023,551
2019-06-14T21:18:54,42.805,6.029,CST-1368DR,9052,12664,15528,0.023,551
2019-06-14T21:21:56,42.805,6.029,CST-1368DR,9052,12666,15530,0.022,551
2019-06-14T21:24:58,42.805,6.029,CST-1368DR,9052,12665,15530,0.022,551
2019-06-14T21:27:59,42.805,6.029,CST-1368DR,9052,12664,15528,0.023,550
2019-06-14T21:31:01,42.805,6.029,CST-1368DR,9052,12666,15530,0.022,551
2019-06-14T21:34:03,42.805,6.029,CST-1368DR,9052,12665,15529,0.022,551
2019-06-14T21:37:05,42.805,6.029,CST-1368DR,9052,12662,15525,0.023,551
2019-06-14T21:40:06,42.805,6.029,CST-1368DR,9052,12664,15528,0.023,551
2019-06-14T21:43:08,42.805,6.029,CST-1368DR,9052,12665,15530,0.022,551
2019-06-14T21:46:10,42.805,6.029,CST-1368DR,9052,12665,15530,0.022,551
2019-06-14T21:49:12,42.805,6.029,CST-1368DR,9052,12665,15529,0.022,551
2019-06-14T21:52:13,42.805,6.029,CST-1368DR,9052,12664,15528,0.023,550
2019-06-14T21:55:15,42.805,6.029,CST-1368DR,9052,12665,15529,0.022,551
2019-06-14T21:58:17,42.805,6.029,CST-1368DR,9052,12663,15527,0.023,551
2019-06-14T22:01:19,42.805,6.029,CST-1368DR,9052,12664,15528,0.023,551
2019-06-14T22:04:21,42.805,6.029,CST-1368DR,9052,12663,15528,0.023,551
2019-06-14T22:07:23,42.805,6.029,CST-1368DR,9052,12664,15528,0.023,551
2019-06-14T22:10:24,42.805,6.029,CST-1368DR,9052,12666,15530,0.022,551
2019-06-14T22:13:26,42.805,6.029,CST-1368DR,9052,12664,15528,0.023,551
2019-06-14T22:16:28,42.805,6.029,CST-1368DR,9052,12665,15529,0.022,551
2019-06-14T22:19:30,42.805,6.029,CST-1368DR,9052,12665,15529,0.022,550
2019-06-14T22:22:31,42.805,6.029,CST-1368DR,9052,12663,15527,0.023,551
2019-06-14T22:25:33,42.805,6.029,CST-1368DR,9052,12665,15529,0.022,551
2019-06-14T22:28:34,42.805,6.029,CST-1368DR,9052,12663,15527,0.023,551
2019-06-14T22:31:36,42.805,6.029,CST-1368DR,9051,12663,15529,0.022,551
2019-06-14T22:34:38,42.805,6.029,CST-1368DR,9052,12665,15530,0.022,551
2019-06-14T22:37:39,42.805,6.029,CST-1368DR,9052,12664,15528,0.023,551
2019-06-14T22:40:41,42.805,6.029,CST-1368DR,9051,12665,15531,0.022,551
2019-06-14T22:43:43,42.805,6.029,CST-1368DR,9051,12663,15529,0.022,551
2019-06-14T22:46:44,42.805,6.029,CST-1368DR,9051,12664,15530,0.022,551
2019-06-14T22:49:46,42.805,6.029,CST-1368DR,9051,12664,15530,0.022,551
2019-06-14T22:52:48,42.805,6.029,CST-1368DR,9051,12665,15531,0.022,551
2019-06-14T22:55:49,42.805,6.029,CST-1368DR,9051,12664,15529,0.022,551
2019-06-14T22:58:51,42.805,6.029,CST-1368DR,9051,12663,15529,0.022,551
2019-06-14T23:01:52,42.805,6.029,CST-1368DR,9051,12664,15529,0.022,550
2019-06-14T23:04:54,42.805,6.029,CST-1368DR,9051,12664,15530,0.022,551
2019-06-14T23:07:56,42.805,6.029,CST-1368DR,9051,12664,15530,0.022,551
2019-06-14T23:10:57,42.805,6.029,CST-1368DR,9051,12664,15530,0.022,551
2019-06-14T23:13:59,42.805,6.029,CST-1368DR,9051,12664,15529,0.022,551
2019-06-14T23:17:01,42.805,6.029,CST-1368DR,9051,12664,15529,0.022,551
2019-06-14T23:20:02,42.805,6.029,CST-1368DR,9051,12663,15529,0.022,551
2019-06-14T23:23:04,42.805,6.029,CST-1368DR,9051,12663,15529,0.022,551
2019-06-14T23:26:06,42.805,6.029,CST-1368DR,9051,12664,15530,0.022,551
2019-06-14T23:29:07,42.805,6.029,CST-1368DR,9051,12662,15528,0.023,550
2019-06-14T23:32:09,42.805,6.029,CST-1368DR,9051,12663,15529,0.022,551
2019-06-14T23:35:10,42.805,6.029,CST-1368DR,9051,12663,15528,0.023,551
2019-06-14T23:38:12,42.805,6.029,CST-1368DR,9051,12663,15529,0.022,551
2019-06-14T23:41:14,42.805,6.029,CST-1368DR,9051,12664,15529,0.022,551
2019-06-14T23:44:15,42.805,6.029,CST-1368DR,9051,12664,15530,0.022,551
2019-06-14T23:47:17,42.805,6.029,CST-1368DR,9051,12662,15528,0.023,551
2019-06-14T23:50:19,42.805,6.029,CST-1368DR,9051,12663,15529,0.022,551
2019-06-14T23:53:20,42.805,6.029,CST-1368DR,9051,12663,15529,0.022,550
2019-06-14T23:56:22,42.805,6.029,CST-1368DR,9051,12664,15530,0.022,551
2019-06-14T23:59:24,42.805,6.029,CST-1368DR,9051,12663,15529,0.022,551
